Location: Newark
(45.4422°N, 16.2769°E)
Time: 07:37:06
(UTC+00:00)

Vanguard 2 - All Passes

Search period start: 08 December 2019 00:00
Search period end: 18 December 2019 00:00
Orbit: 553 x 2938 km, 32.9° (Epoch: 07 December)

Date Brightness Start Highest point End Pass type
(mag) Time Alt. Az. Time Alt. Az. Time Alt. Az.
08 Dec - 01:01:15 10° SW 01:16:36 44° SSE 01:31:57 10° E visible
08 Dec - 03:10:59 10° WSW 03:27:55 53° S 03:42:08 10° ESE visible
08 Dec - 05:23:07 10° W 05:38:40 42° SSW 05:50:09 10° SE visible
08 Dec - 07:37:54 10° W 07:47:14 20° SW 07:54:32 10° S daylight
08 Dec - 23:11:44 10° SSW 23:23:54 29° SE 23:37:35 10° E visible
09 Dec - 01:18:33 10° SW 01:34:16 48° SSE 01:49:58 10° E visible
09 Dec - 03:28:49 10° WSW 03:45:44 52° S 03:59:50 10° ESE visible
09 Dec - 05:41:18 10° W 05:56:10 38° SSW 06:07:20 10° SSE visible
09 Dec - 07:57:41 10° WSW 08:04:17 15° SW 08:09:52 10° SSW daylight
09 Dec - 21:27:34 10° SSE 21:32:39 12° SE 21:38:09 10° ESE night (unlit)
09 Dec - 23:28:17 10° SSW 23:41:17 34° SSE 23:56:06 10° E visible
10 Dec - 01:36:02 10° WSW 01:52:02 51° S 02:07:55 10° ESE visible
10 Dec - 03:46:43 10° W 04:03:29 50° SSW 04:17:27 10° ESE visible
10 Dec - 05:59:37 10° W 06:13:34 32° SSW 06:24:17 10° SSE daylight
10 Dec - 21:41:31 10° S 21:49:42 18° SE 21:59:09 10° E visible
10 Dec - 23:45:11 10° SW 23:58:45 40° SSE 00:14:23 10° E visible
11 Dec - 01:53:39 10° WSW 02:09:50 53° S 02:25:46 10° ESE visible
11 Dec - 04:04:42 10° W 04:21:12 47° SSW 04:34:56 10° SE visible
11 Dec - 06:18:12 10° W 06:30:51 27° SW 06:40:53 10° SSE daylight
11 Dec - 21:57:04 10° S 22:06:50 23° SE 22:18:37 10° E visible
12 Dec - 00:02:21 10° SW 00:16:19 45° SSE 00:32:31 10° E visible
12 Dec - 02:11:23 10° WSW 02:27:39 54° S 02:43:34 10° ESE visible
12 Dec - 04:22:46 10° W 04:38:50 43° SSW 04:52:15 10° SE visible
12 Dec - 06:37:11 10° W 06:48:02 21° SW 06:56:59 10° S daylight
12 Dec - 22:13:20 10° SSW 22:24:02 29° SE 22:37:26 10° E visible
13 Dec - 00:19:43 10° SW 00:33:58 49° SSE 00:50:32 10° E visible
13 Dec - 02:29:12 10° WSW 02:45:27 53° S 03:01:16 10° ESE visible
13 Dec - 04:40:56 10° W 04:56:21 38° SSW 05:09:22 10° SSE visible
13 Dec - 06:56:58 10° WSW 07:05:07 16° SW 07:12:12 10° SSW daylight
13 Dec - 20:29:40 10° SE 20:33:22 12° SE 20:37:27 10° ESE night (unlit)
13 Dec - 22:30:02 10° SSW 22:41:22 34° SSE 22:55:54 10° E visible
14 Dec - 00:37:14 10° WSW 00:51:43 51° S 01:08:29 10° ESE visible
14 Dec - 02:47:06 10° W 03:03:14 50° SSW 03:18:50 10° SE visible
14 Dec - 04:59:17 10° W 05:13:47 33° SSW 05:26:11 10° SSE visible
14 Dec - 07:19:36 10° WSW 07:22:07 11° SW 07:24:33 10° SW daylight
14 Dec - 20:43:39 10° SSE 20:50:23 17° SE 20:58:32 10° E night (unlit)
14 Dec - 22:47:02 10° SW 22:58:48 40° SSE 23:14:10 10° E visible
15 Dec - 00:54:52 10° WSW 01:09:30 53° S 01:26:22 10° ESE visible
15 Dec - 03:05:04 10° W 03:20:57 47° SSW 03:36:17 10° SE visible
15 Dec - 05:17:54 10° W 05:31:06 27° SW 05:42:38 10° SSE visible
15 Dec - 20:59:21 10° S 21:07:28 22° SE 21:17:56 10° E night (unlit)
15 Dec - 23:04:17 10° SW 23:16:21 44° SSE 23:32:18 10° E visible
16 Dec - 01:12:36 10° WSW 01:27:18 53° S 01:44:09 10° ESE visible
16 Dec - 03:23:07 10° W 03:38:36 42° SSW 03:53:32 10° SE visible
16 Dec - 05:36:56 10° W 05:48:21 21° SW 05:58:32 10° S visible
16 Dec - 21:15:45 10° SSW 21:24:40 28° SE 21:36:44 10° E night (unlit)
16 Dec - 23:21:41 10° SW 23:33:59 48° SSE 23:50:20 10° E visible
17 Dec - 01:30:25 10° WSW 01:45:06 51° S 02:01:50 10° ESE visible
17 Dec - 03:41:18 10° W 03:56:10 37° SSW 04:10:32 10° SSE visible
17 Dec - 05:56:52 10° WSW 06:05:30 16° SW 06:13:28 10° SSW visible
17 Dec - 21:32:33 10° SSW 21:41:59 33° SSE 21:55:11 10° E night (unlit)
